Hourly Data Report for November 03, 2019

All times are specified in Local Standard Time (LST). Add 1 hour to adjust for Daylight Saving Time where and when it is observed.

QUALICUM BEACH AIRPORT
BRITISH COLUMBIA
Current Station Operator: ECCC - MSC

49°20'14.000" N
124°23'38.000" W
58.20 m
1026562
71766
VOQ

Download Data

Hourly Data (November 2019)
Hourly Data Report for November 3, 2019
TIME Temp Definition
°C
Dew Point Definition
°C
Rel Hum Definition
%
Wind Dir Definition
10's deg

Wind Spd Definition
km/h
Visibility Definition
km
Stn Press Definition
kPa
Hmdx Definition


Wind Chill Definition


Weather Definition


00:00 7.0 6.2 95 26 4   101.67     LegendNANA
01:00 8.0 7.2 95 25 3   101.66     LegendNANA
02:00 8.2 7.2 93   0   101.67     LegendNANA
03:00 8.6 7.3 92 0 1   101.66     LegendNANA
04:00 8.3 7.3 94   0   101.63     LegendNANA
05:00 8.4 7.4 93 26 1   101.68     LegendNANA
06:00 9.0 7.7 91 30 2   101.67     LegendNANA
07:00 8.8 7.9 94 34 4   101.66     LegendNANA
08:00 8.9 8.1 95 6 3   101.69     LegendNANA
09:00 9.6 8.3 92 27 2   101.71     LegendNANA
10:00 10.5 8.7 88 34 2   101.74     LegendNANA
11:00 10.1 8.2 88 6 7   101.72     LegendNANA
12:00 10.3 8.4 88 6 2   101.70     LegendNANA
13:00 10.5 8.4 87 3 5   101.68     LegendNANA
14:00 11.3 8.6 83 33 6   101.63     LegendNANA
15:00 11.1 8.3 83 33 6   101.60     LegendNANA
16:00 10.8 8.1 84 28 4   101.58     LegendNANA
17:00 9.4 7.3 87 29 1   101.58     LegendNANA
18:00 8.9 7.2 89 27 5   101.55     LegendNANA
19:00 9.3 7.4 88 25 6   101.53     LegendNANA
20:00 9.6 7.6 87 27 6   101.54     LegendNANA
21:00 9.2 7.8 91 25 3   101.58     LegendNANA
22:00 9.8 8.0 89 27 5   101.61     LegendNANA
23:00 9.8 8.2 90 27 3   101.63     LegendNANA

Notes on Data Quality.

Legend

  • E = Estimated
  • M = Missing
  • NA = Not Available
Date modified: